User: anonymous   Login
Location: Unspecified
(0.0000°N, 0.0000°E)
Time: 16:00:28
(UTC+00:00)
Language:

M-CUBED/EXP-1 PRIME - Orbit

View from above orbital plane
View from above orbital plane
View from above satellite
View from above satellite

Ground track
Ground track

The orbit data is extracted from the following two-line orbital elements,

1 37855U 11061F   20292.91401434 +.00001129 +00000-0 +62745-4 0  9999
2 37855 101.7263 085.0577 0169960 068.4450 293.4781 15.06648664489797
Epoch (UTC): 18 October 2020 21:56:10
Eccentricity: 0.0169960
inclination: 101.7263°
perigee height: 429 km
apogee height: 664 km
right ascension of ascending node: 85.0577°
argument of perigee: 68.4450°
revolutions per day: 15.06648664
mean anomaly at epoch: 293.4781°
orbit number at epoch: 48979

The dashed part of the orbit path shows where the satellite is in the earth's shadow,  

DLR